FW7122 Weather Reports


Display with metric or nautical units.
time (UTC)temp
F
wind
direction
speed
MPH
gust
MPH
rain 1hr
in
rain 24hr
in
rain mn
in
humidity
%
barometer
mb
20260503220037 61 211 5.0 17.0 0.00 0.00 0.00 44 1011.9
20260503215529 61 222 9.0 15.0 0.00 0.00 0.00 43 1011.9
20260503215040 61 237 9.0 18.0 0.00 0.00 0.00 42 1011.9
20260503214532 61 270 10.0 18.0 0.00 0.00 0.00 44 1011.9
20260503214028 61 261 10.0 19.0 0.00 0.00 0.00 44 1012.0
20260503213541 61 242 6.0 19.0 0.00 0.00 0.00 44 1011.8
20260503213033 61 261 9.0 22.0 0.00 0.00 0.00 42 1011.9
20260503212526 61 227 7.0 22.0 0.00 0.00 0.00 42 1012.0
20260503212038 60 200 7.0 23.0 0.00 0.00 0.00 43 1012.1
20260503211530 60 230 8.0 23.0 0.00 0.00 0.00 43 1012.1
20260503211043 60 223 11.0 20.0 0.00 0.00 0.00 43 1012.1
20260503210535 61 200 11.0 20.0 0.00 0.00 0.00 43 1012.1
20260503210031 61 213 4.0 19.0 0.00 0.00 0.00 44 1012.1
20260503205543 61 236 13.0 27.0 0.00 0.00 0.00 43 1012.1
20260503205035 61 221 11.0 27.0 0.00 0.00 0.00 42 1012.1
20260503204546 61 217 12.0 22.0 0.00 0.00 0.00 43 1012.1
20260503204037 61 240 12.0 22.0 0.00 0.00 0.00 43 1012.1
20260503203530 61 175 12.0 22.0 0.00 0.00 0.00 43 1012.0
20260503203038 61 188 8.0 23.0 0.00 0.00 0.00 43 1012.2
20260503202530 61 203 15.0 23.0 0.00 0.00 0.00 42 1012.2
20260503202102 61 250 7.0 21.0 0.00 0.00 0.00 43 1012.2
20260503201537 61 205 11.0 20.0 0.00 0.00 0.00 42 1012.2
20260503201028 61 284 5.0 23.0 0.00 0.00 0.00 43 1012.3
20260503200542 61 200 12.0 24.0 0.00 0.00 0.00 43 1012.4
20260503200033 61 198 12.0 29.0 0.00 0.00 0.00 41 1012.4
20260503195545 62 277 7.0 29.0 0.00 0.00 0.00 42 1012.5
20260503195037 62 251 7.0 21.0 0.00 0.00 0.00 42 1012.5
20260503194529 61 260 9.0 26.0 0.00 0.00 0.00 41 1012.6
20260503194041 62 216 14.0 26.0 0.00 0.00 0.00 40 1012.7
20260503193537 62 263 8.0 21.0 0.00 0.00 0.00 42 1012.8
20260503193027 62 220 6.0 24.0 0.00 0.00 0.00 41 1012.9
20260503192539 62 218 10.0 24.0 0.00 0.00 0.00 40 1012.9
20260503192031 62 234 6.0 18.0 0.00 0.00 0.00 42 1013.0
20260503191543 62 239 7.0 16.0 0.00 0.00 0.00 41 1013.1
20260503191035 62 294 7.0 19.0 0.00 0.00 0.00 42 1013.1
20260503190527 62 220 8.0 19.0 0.00 0.00 0.00 43 1013.3
20260503190101 62 165 7.0 26.0 0.00 0.00 0.00 43 1013.4
20260503185531 62 220 12.0 26.0 0.00 0.00 0.00 43 1013.4
20260503185027 62 194 5.0 21.0 0.00 0.00 0.00 42 1013.4
20260503184540 62 199 5.0 19.0 0.00 0.00 0.00 44 1013.5
20260503184033 63 209 7.0 23.0 0.00 0.00 0.00 45 1013.6
20260503183605 62 225 7.0 23.0 0.00 0.00 0.00 45 1013.6
20260503183036 62 197 8.0 22.0 0.00 0.00 0.00 44 1013.8
20260503182548 62 234 6.0 22.0 0.00 0.00 0.00 44 1013.8
20260503182038 62 202 10.0 18.0 0.00 0.00 0.00 42 1013.9
20260503181529 62 252 8.0 18.0 0.00 0.00 0.00 45 1013.8
20260503181040 62 182 6.0 20.0 0.00 0.00 0.00 47 1013.9
20260503180536 62 311 6.0 20.0 0.00 0.00 0.00 47 1014.1
20260503180027 61 234 6.0 18.0 0.00 0.00 0.00 44 1014.0
20260503175539 61 230 8.0 24.0 0.00 0.00 0.00 46 1014.1
20260503175031 62 152 14.0 24.0 0.00 0.00 0.00 43 1014.2
20260503174543 62 243 9.0 17.0 0.00 0.00 0.00 47 1014.2
20260503174035 61 257 9.0 18.0 0.00 0.00 0.00 45 1014.2
20260503173527 62 194 12.0 18.0 0.00 0.00 0.00 45 1014.3
20260503173038 62 247 8.0 15.0 0.00 0.00 0.00 50 1014.4
20260503172530 61 246 10.0 15.0 0.00 0.00 0.00 47 1014.4
20260503172045 60 164 2.0 18.0 0.00 0.00 0.00 49 1014.4
20260503171556 60 213 9.0 17.0 0.00 0.00 0.00 48 1014.7
20260503171027 60 239 9.0 19.0 0.00 0.00 0.00 48 1014.7
20260503170540 59 240 7.0 20.0 0.00 0.00 0.00 49 1014.7
20260503150601 55 246 9.0 16.0 0.00 0.00 0.00 53 1015.9
20260503131042 47 219 6.0 12.0 0.00 0.00 0.00 62 1016.5
20260503130534 46 229 3.0 13.0 0.00 0.00 0.00 63 1016.4
20260503110526 37 222 1.0 4.0 0.00 0.00 0.00 83 1016.3
20260503081549 37 223 0.0 7.0 0.00 0.00 0.00 86 1016.0
20260503081101 37 223 0.0 5.0 0.00 0.00 0.00 86 1016.0
20260503080531 37 223 2.0 5.0 0.00 0.00 0.00 86 1016.0
20260503072551 38 223 0.0 0.0 0.00 0.00 0.00 84 1016.0
20260503072043 38 223 0.0 0.0 0.00 0.00 0.00 84 1016.0
20260503071535 38 223 0.0 0.0 0.00 0.00 0.00 84 1016.0
20260503071028 38 223 0.0 6.0 0.00 0.00 0.00 84 1016.0
20260503070540 38 223 1.0 6.0 0.00 0.00 0.00 84 1016.0
20260503055055 40 223 1.0 5.0 0.00 0.00 0.00 82 1016.3
20260503054527 40 223 0.0 5.0 0.00 0.00 0.00 82 1016.3
20260503054039 40 223 0.0 4.0 0.00 0.00 0.00 81 1016.4
20260503053530 40 223 1.0 4.0 0.00 0.00 0.00 81 1016.4
20260503053026 40 223 0.0 5.0 0.00 0.00 0.00 81 1016.4
20260503052538 40 223 0.0 6.0 0.00 0.00 0.00 81 1016.4
20260503052029 40 223 2.0 4.0 0.00 0.00 0.00 80 1016.4
20260503051542 40 223 0.0 3.0 0.00 0.00 0.00 80 1016.4
20260503051054 41 223 1.0 7.0 0.00 0.00 0.00 79 1016.4
20260503050605 41 223 1.0 7.0 0.00 0.00 0.00 79 1016.4
20260503050057 41 223 1.0 4.0 0.00 0.00 0.00 79 1016.5
20260503045527 41 223 0.0 5.0 0.00 0.00 0.11 79 1016.5
20260503045040 41 223 4.0 5.0 0.00 0.00 0.11 78 1016.5
20260503044533 41 223 0.0 5.0 0.00 0.00 0.11 78 1016.5
20260503044030 41 223 1.0 6.0 0.00 0.00 0.11 78 1016.5
20260503043542 41 223 3.0 6.0 0.00 0.00 0.11 78 1016.5
20260503043055 42 223 2.0 4.0 0.00 0.00 0.11 77 1016.5
20260503042544 42 223 0.0 4.0 0.00 0.00 0.11 77 1016.5
20260503042037 42 223 1.0 6.0 0.00 0.00 0.11 76 1016.5
20260503041529 42 223 1.0 7.0 0.00 0.00 0.11 76 1016.6
20260503041042 42 223 4.0 7.0 0.00 0.00 0.11 76 1016.6
20260503040537 42 223 2.0 6.0 0.00 0.00 0.11 76 1016.6
20260503040032 42 223 1.0 8.0 0.00 0.00 0.11 75 1016.7
20260503035606 42 223 0.0 9.0 0.00 0.00 0.11 75 1016.7
20260503035037 43 223 4.0 9.0 0.00 0.00 0.11 75 1016.6
20260503034529 43 224 5.0 9.0 0.00 0.00 0.11 75 1016.7
20260503034042 43 225 2.0 7.0 0.00 0.00 0.11 75 1016.7
20260503033534 43 225 3.0 9.0 0.00 0.00 0.11 75 1016.8
20260503033027 43 225 5.0 9.0 0.00 0.00 0.11 75 1016.8
20260503032539 43 225 5.0 9.0 0.00 0.00 0.11 74 1016.9
20260503032032 43 227 3.0 8.0 0.00 0.00 0.11 75 1016.9
20260503031528 43 232 3.0 8.0 0.00 0.00 0.11 74 1016.9
20260503031041 43 232 4.0 8.0 0.00 0.00 0.11 74 1016.8
20260503030533 43 232 4.0 8.0 0.00 0.00 0.11 74 1016.9
20260503030026 43 232 3.0 8.0 0.00 0.00 0.11 74 1016.9
20260503025538 43 232 2.0 4.0 0.00 0.00 0.11 74 1016.9
20260503025050 43 232 0.0 4.0 0.00 0.00 0.11 74 1017.0
20260503024542 43 232 1.0 7.0 0.00 0.00 0.11 74 1017.0
20260503024035 43 232 2.0 6.0 0.00 0.00 0.11 74 1017.0
20260503023532 43 232 0.0 7.0 0.00 0.00 0.11 73 1017.1
20260503023045 43 232 2.0 7.0 0.00 0.00 0.11 73 1017.1
20260503022533 43 232 1.0 7.0 0.00 0.00 0.11 73 1017.1
20260503022045 44 232 3.0 7.0 0.00 0.00 0.11 72 1017.1
20260503021538 44 232 1.0 5.0 0.00 0.00 0.11 72 1017.1
20260503021031 44 232 2.0 10.0 0.00 0.00 0.11 71 1017.1
20260503020543 44 232 3.0 10.0 0.00 0.00 0.11 71 1017.1
20260503020036 44 250 4.0 7.0 0.00 0.00 0.11 70 1017.1
20260503015549 44 255 3.0 6.0 0.00 0.00 0.11 70 1017.1
20260503015041 44 255 3.0 6.0 0.00 0.00 0.11 70 1017.1
20260503014537 44 255 2.0 6.0 0.00 0.00 0.11 69 1017.0
20260503014049 44 258 1.0 5.0 0.00 0.00 0.11 70 1017.0
20260503013542 44 259 1.0 6.0 0.00 0.00 0.11 69 1017.0
20260503013035 44 259 1.0 6.0 0.00 0.00 0.11 69 1017.0
20260503012527 44 258 3.0 5.0 0.00 0.00 0.11 69 1016.9
20260503012039 44 258 0.0 4.0 0.00 0.00 0.11 69 1017.0
20260503011532 44 258 1.0 4.0 0.00 0.00 0.11 69 1017.0
20260503011041 44 258 0.0 3.0 0.00 0.00 0.11 69 1017.0
20260503010554 44 258 0.0 2.0 0.00 0.00 0.11 68 1016.9
20260503010030 44 258 0.0 5.0 0.00 0.00 0.11 68 1016.9
20260503005542 44 258 0.0 5.0 0.00 0.00 0.11 67 1016.9
20260503005036 44 259 0.0 0.0 0.00 0.00 0.11 68 1016.9
20260503004546 44 259 0.0 0.0 0.00 0.00 0.11 67 1016.8
20260503004038 44 259 0.0 0.0 0.00 0.00 0.11 67 1016.7
20260503003531 44 259 0.0 0.0 0.00 0.00 0.11 66 1016.7
20260503003104 44 259 0.0 0.0 0.00 0.00 0.11 66 1016.6
20260503002535 44 259 0.0 0.0 0.00 0.00 0.11 65 1016.7
20260503002047 45 259 0.0 0.0 0.00 0.00 0.11 65 1016.7
20260503001538 45 259 0.0 0.0 0.00 0.00 0.11 66 1016.8
20260503001035 45 259 0.0 1.0 0.00 0.00 0.11 65 1016.8
20260503000527 45 259 0.0 2.0 0.00 0.00 0.11 64 1016.8
20260503000041 45 259 0.0 1.0 0.00 0.00 0.11 64 1016.8
20260502235532 45 259 0.0 0.0 0.00 0.00 0.11 65 1016.6
20260502235045 45 259 0.0 5.0 0.00 0.00 0.11 64 1016.7
20260502234557 45 259 1.0 5.0 0.00 0.00 0.11 64 1016.6
20260502234028 45 259 0.0 5.0 0.00 0.00 0.11 64 1016.6
20260502233540 45 259 1.0 5.0 0.00 0.00 0.11 63 1016.6
20260502233032 45 259 0.0 2.0 0.00 0.00 0.11 62 1016.6
20260502232548 45 259 0.0 0.0 0.00 0.00 0.11 62 1016.6
20260502232037 46 259 0.0 0.0 0.00 0.00 0.11 61 1016.7
20260502231530 46 259 0.0 5.0 0.00 0.00 0.11 61 1016.7
20260502231041 46 259 0.0 5.0 0.00 0.00 0.11 60 1016.8
20260502230554 46 259 0.0 6.0 0.00 0.00 0.11 59 1016.8
20260502230045 46 259 0.0 9.0 0.00 0.00 0.11 59 1016.8
20260502225557 47 260 2.0 10.0 0.00 0.00 0.11 59 1016.8
20260502225028 47 277 0.0 11.0 0.00 0.00 0.11 59 1016.7
20260502224541 47 205 5.0 11.0 0.00 0.00 0.11 60 1016.7
20260502224053 46 5 0.0 7.0 0.00 0.00 0.11 60 1016.7
20260502223548 46 345 0.0 2.0 0.00 0.00 0.11 61 1016.8
20260502223040 46 355 0.0 2.0 0.00 0.00 0.11 60 1016.8
20260502222532 46 355 0.0 5.0 0.00 0.00 0.11 62 1016.8
20260502222104 46 355 1.0 5.0 0.00 0.00 0.11 61 1016.8
20260502221532 46 355 1.0 6.0 0.00 0.00 0.11 62 1016.8
20260502221044 46 355 1.0 6.0 0.00 0.00 0.11 61 1016.8
20260502220556 46 278 1.0 7.0 0.00 0.00 0.11 59 1016.9